Simultaneous Nadir Overpasses (SNOs) Predictions

Prediction of SNOs between LANDSAT-8 and NOAA-19 Satellite Orbit:

Table of predicted SNOs for the next 14.0 days since TLE Epoch: 1/23/2015
Index Date (LANDSAT-8) Time (LANDSAT-8) Lat,Lon (LANDSAT-8) SZA (LANDSAT-8 ) Date (NOAA-19) Time (NOAA-19) Lat,Lon (NOAA-19) SZA (NOAA-19 ) Distance(km) Time Diff (sec)
1 01/24/2015 11:10:54 72.73, 12.79 91.87 01/24/2015 11:10:33 72.72, 12.72 91.86 2.49 21
2 01/24/2015 12:00:24 -72.61,-179.80 88.26 01/24/2015 12:01:28 -72.63,-179.82 88.25 1.40 64
3 01/26/2015 15:55:09 72.76, -58.23 91.36 01/26/2015 15:54:07 72.78, -58.27 91.38 2.73 62
4 01/26/2015 16:44:39 -72.64, 109.19 88.77 01/26/2015 16:45:01 -72.66, 109.26 88.76 2.89 22
5 01/28/2015 21:28:53 -72.71, 38.25 89.27 01/28/2015 21:28:34 -72.70, 38.33 89.29 3.19 19
6 01/28/2015 22:18:24 72.40,-154.68 90.42 01/28/2015 22:19:35 72.40,-153.83 90.41 28.66 71
7 01/31/2015 02:13:07 -72.77, -32.70 89.81 01/31/2015 02:12:08 -72.79, -32.73 89.78 2.32 59
8 01/31/2015 03:02:34 72.67, 134.76 90.09 01/31/2015 03:03:13 72.68, 134.72 90.10 1.51 39
9 02/02/2015 07:46:48 72.72, 63.78 89.52 02/02/2015 07:46:46 72.73, 63.78 89.53 0.49 2
10 02/02/2015 08:36:23 -72.34,-129.29 90.86 02/02/2015 08:37:33 -72.30,-128.06 90.93 42.00 70
11 02/04/2015 12:31:02 72.76, -7.21 88.91 02/04/2015 12:30:19 72.78, -7.19 88.94 2.56 43
12 02/04/2015 13:20:31 -72.70, 160.31 91.16 02/04/2015 13:21:13 -72.71, 160.23 91.15 2.78 42
